User: anonymous   Login
Location: Caltech
(34.1382°N, 118.1253°W)
Time: 01:46:07
(UTC-07:00)
Language:

Oscar 10/S400 - Orbit

View from above orbital plane
View from above orbital plane
View from above satellite
View from above satellite

Ground track
Ground track

The orbit data is extracted from the following two-line orbital elements,

1 14129U 83058B   15141.56802399  .00000003  00000-0  10000-3 0  9992
2 14129 025.8393 157.9406 6081256 099.6033 329.8818 02.05872787212212
Epoch (UTC): 21 May 2015 13:37:57
Eccentricity: 0.6081256
inclination: 25.8393°
perigee height: 3850 km
apogee height: 35596 km
right ascension of ascending node: 157.9406°
argument of perigee: 99.6033°
revolutions per day: 2.05872787
mean anomaly at epoch: 329.8818°
orbit number at epoch: 21221

The dashed part of the orbit path shows where the satellite is in the earth's shadow,  

DLR